Year,Month,Day,Hour,Minute,Value (Times are PST for temperature in C)
2014,07,14,00,00,16.30
2014,07,14,00,01,16.30
2014,07,14,00,02,16.20
2014,07,14,00,03,16.20
2014,07,14,00,04,16.10
2014,07,14,00,05,16.10
2014,07,14,00,06,16.10
2014,07,14,00,07,15.90
2014,07,14,00,08,15.80
2014,07,14,00,09,15.80
2014,07,14,00,10,15.80
2014,07,14,00,11,15.80
2014,07,14,00,12,15.80
2014,07,14,00,13,15.70
2014,07,14,00,14,15.60
2014,07,14,00,15,15.60
2014,07,14,00,16,15.50
2014,07,14,00,17,15.50
2014,07,14,00,18,15.40
2014,07,14,00,19,15.30
2014,07,14,00,20,15.30
2014,07,14,00,21,15.30
2014,07,14,00,22,15.30
2014,07,14,00,23,15.30
2014,07,14,00,24,15.20
2014,07,14,00,25,15.20
2014,07,14,00,26,15.20
2014,07,14,00,27,15.10
2014,07,14,00,28,15.00
2014,07,14,00,29,15.00
2014,07,14,00,30,14.90
2014,07,14,00,31,14.90
2014,07,14,00,32,15.00
2014,07,14,00,33,15.00
2014,07,14,00,34,15.00
2014,07,14,00,35,15.00
2014,07,14,00,36,15.00
2014,07,14,00,37,15.00
2014,07,14,00,38,15.00
2014,07,14,00,39,15.00
2014,07,14,00,40,15.00
2014,07,14,00,41,14.90
2014,07,14,00,42,14.90
2014,07,14,00,43,14.90
2014,07,14,00,44,14.90
2014,07,14,00,45,14.90
2014,07,14,00,46,14.90
2014,07,14,00,47,14.90
2014,07,14,00,48,14.90
2014,07,14,00,49,14.90
2014,07,14,00,50,15.00
2014,07,14,00,51,15.00
2014,07,14,00,52,15.10
2014,07,14,00,53,15.10
2014,07,14,00,54,15.20
2014,07,14,00,55,15.30
2014,07,14,00,56,15.40
2014,07,14,00,57,15.50
2014,07,14,00,58,15.60
2014,07,14,00,59,15.70
2014,07,14,01,00,15.80
2014,07,14,01,01,15.80
2014,07,14,01,02,15.90
2014,07,14,01,03,16.10
2014,07,14,01,04,16.10
2014,07,14,01,05,16.20
2014,07,14,01,06,16.20
2014,07,14,01,07,16.30
2014,07,14,01,08,16.40
2014,07,14,01,09,16.50
2014,07,14,01,10,16.60
2014,07,14,01,11,16.70
2014,07,14,01,12,16.80
2014,07,14,01,13,16.90
2014,07,14,01,14,17.00
2014,07,14,01,15,17.10
2014,07,14,01,16,17.20
2014,07,14,01,17,17.30
2014,07,14,01,18,17.40
2014,07,14,01,19,17.50
2014,07,14,01,20,17.50
2014,07,14,01,21,17.60
2014,07,14,01,22,17.60
2014,07,14,01,23,17.60
2014,07,14,01,24,17.60
2014,07,14,01,25,17.60
2014,07,14,01,26,17.50
2014,07,14,01,27,17.50
2014,07,14,01,28,17.50
2014,07,14,01,29,17.40
2014,07,14,01,30,17.40
2014,07,14,01,31,17.40
2014,07,14,01,32,17.30
2014,07,14,01,33,17.30
2014,07,14,01,34,17.30
2014,07,14,01,35,17.40
2014,07,14,01,36,17.40
2014,07,14,01,37,17.50
2014,07,14,01,38,17.50
2014,07,14,01,39,17.40
2014,07,14,01,40,17.30
2014,07,14,01,41,17.30
2014,07,14,01,42,17.20
2014,07,14,01,43,17.10
2014,07,14,01,44,17.10
2014,07,14,01,45,17.00
2014,07,14,01,46,17.00
2014,07,14,01,47,17.00
2014,07,14,01,48,16.90
2014,07,14,01,49,16.70
2014,07,14,01,50,16.60
2014,07,14,01,51,16.50
2014,07,14,01,52,16.30
2014,07,14,01,53,16.20
2014,07,14,01,54,16.00
2014,07,14,01,55,15.90
2014,07,14,01,56,15.80
2014,07,14,01,57,15.70
2014,07,14,01,58,15.60
2014,07,14,01,59,15.50
2014,07,14,02,00,15.50
2014,07,14,02,01,15.40
2014,07,14,02,02,15.30
2014,07,14,02,03,15.30
2014,07,14,02,04,15.30
2014,07,14,02,05,15.30
2014,07,14,02,06,15.30
2014,07,14,02,07,15.30
2014,07,14,02,08,15.30
2014,07,14,02,09,15.30
2014,07,14,02,10,15.30
2014,07,14,02,11,15.30
2014,07,14,02,12,15.30
2014,07,14,02,13,15.20
2014,07,14,02,14,15.10
2014,07,14,02,15,15.10
2014,07,14,02,16,15.00
2014,07,14,02,17,15.00
2014,07,14,02,18,14.90
2014,07,14,02,19,14.90
2014,07,14,02,20,14.80
2014,07,14,02,21,14.80
2014,07,14,02,22,14.80
2014,07,14,02,23,14.80
2014,07,14,02,24,14.80
2014,07,14,02,25,14.80
2014,07,14,02,26,14.80
2014,07,14,02,27,14.80
2014,07,14,02,28,14.70
2014,07,14,02,29,14.70
2014,07,14,02,30,14.70
2014,07,14,02,31,14.60
2014,07,14,02,32,14.60
2014,07,14,02,33,14.60
2014,07,14,02,34,14.60
2014,07,14,02,35,14.60
2014,07,14,02,36,14.50
2014,07,14,02,37,14.50
2014,07,14,02,38,14.40
2014,07,14,02,39,14.30
2014,07,14,02,40,14.20
2014,07,14,02,41,14.10
2014,07,14,02,42,14.00
2014,07,14,02,43,13.90
2014,07,14,02,44,13.90
2014,07,14,02,45,13.80
2014,07,14,02,46,13.80
2014,07,14,02,47,13.80
2014,07,14,02,48,13.80
2014,07,14,02,49,13.70
2014,07,14,02,50,13.80
2014,07,14,02,51,13.80
2014,07,14,02,52,13.80
2014,07,14,02,53,13.80
2014,07,14,02,54,13.80
2014,07,14,02,55,13.80
2014,07,14,02,56,13.80
2014,07,14,02,57,13.90
2014,07,14,02,58,13.90
2014,07,14,02,59,13.90
2014,07,14,03,00,13.90
2014,07,14,03,01,13.90
2014,07,14,03,02,14.00
2014,07,14,03,03,14.00
2014,07,14,03,04,14.00
2014,07,14,03,05,14.00
2014,07,14,03,06,14.00
2014,07,14,03,07,14.00
2014,07,14,03,08,14.00
2014,07,14,03,09,14.00
2014,07,14,03,10,14.00
2014,07,14,03,11,14.00
2014,07,14,03,12,14.00
2014,07,14,03,13,14.00
2014,07,14,03,14,14.00
2014,07,14,03,15,14.00
2014,07,14,03,16,13.90
2014,07,14,03,17,13.90
2014,07,14,03,18,13.90
2014,07,14,03,19,13.90
2014,07,14,03,20,13.90
2014,07,14,03,21,14.00
2014,07,14,03,22,14.00
2014,07,14,03,23,14.00
2014,07,14,03,24,13.90
2014,07,14,03,25,13.90
2014,07,14,03,26,13.80
2014,07,14,03,27,13.70
2014,07,14,03,28,13.60
2014,07,14,03,29,13.60
2014,07,14,03,30,13.50
2014,07,14,03,31,13.50
2014,07,14,03,32,13.40
2014,07,14,03,33,13.30
2014,07,14,03,34,13.30
2014,07,14,03,35,13.20
2014,07,14,03,36,13.20
2014,07,14,03,37,13.10
2014,07,14,03,38,13.10
2014,07,14,03,39,13.00
2014,07,14,03,40,13.00
2014,07,14,03,41,13.00
2014,07,14,03,42,13.00
2014,07,14,03,43,13.00
2014,07,14,03,44,13.00
2014,07,14,03,45,13.00
2014,07,14,03,46,13.00
2014,07,14,03,47,13.00
2014,07,14,03,48,13.00
2014,07,14,03,49,13.00
2014,07,14,03,50,13.00
2014,07,14,03,51,13.10
2014,07,14,03,52,13.10
2014,07,14,03,53,13.10
2014,07,14,03,54,13.10
2014,07,14,03,55,13.10
2014,07,14,03,56,13.10
2014,07,14,03,57,13.10
2014,07,14,03,58,13.00
2014,07,14,03,59,13.00
2014,07,14,04,00,13.00
2014,07,14,04,01,12.90
2014,07,14,04,02,12.80
2014,07,14,04,03,12.80
2014,07,14,04,04,12.70
2014,07,14,04,05,12.70
2014,07,14,04,06,12.60
2014,07,14,04,07,12.50
2014,07,14,04,08,12.50
2014,07,14,04,09,12.40
2014,07,14,04,10,12.40
2014,07,14,04,11,12.40
2014,07,14,04,12,12.40
2014,07,14,04,13,12.40
2014,07,14,04,14,12.40
2014,07,14,04,15,12.30
2014,07,14,04,16,12.30
2014,07,14,04,17,12.30
2014,07,14,04,18,12.30
2014,07,14,04,19,12.30
2014,07,14,04,20,12.30
2014,07,14,04,21,12.30
2014,07,14,04,22,12.30
2014,07,14,04,23,12.30
2014,07,14,04,24,12.30
2014,07,14,04,25,12.30
2014,07,14,04,26,12.30
2014,07,14,04,27,12.20
2014,07,14,04,28,12.20
2014,07,14,04,29,12.20
2014,07,14,04,30,12.20
2014,07,14,04,31,12.20
2014,07,14,04,32,12.20
2014,07,14,04,33,12.20
2014,07,14,04,34,12.20
2014,07,14,04,35,12.20
2014,07,14,04,36,12.20
2014,07,14,04,37,12.20
2014,07,14,04,38,12.20
2014,07,14,04,39,12.20
2014,07,14,04,40,12.20
2014,07,14,04,41,12.20
2014,07,14,04,42,12.20
2014,07,14,04,43,12.20
2014,07,14,04,44,12.10
2014,07,14,04,45,12.10
2014,07,14,04,46,12.10
2014,07,14,04,47,12.10
2014,07,14,04,48,12.10
2014,07,14,04,49,12.10
2014,07,14,04,50,12.10
2014,07,14,04,51,12.10
2014,07,14,04,52,12.10
2014,07,14,04,53,12.10
2014,07,14,04,54,12.10
2014,07,14,04,55,12.10
2014,07,14,04,56,12.10
2014,07,14,04,57,12.10
2014,07,14,04,58,12.10
2014,07,14,04,59,12.10
2014,07,14,05,00,12.10
2014,07,14,05,01,12.10
2014,07,14,05,02,12.10
2014,07,14,05,03,12.10
2014,07,14,05,04,12.10
2014,07,14,05,05,12.10
2014,07,14,05,06,12.10
2014,07,14,05,07,12.10
2014,07,14,05,08,12.10
2014,07,14,05,09,12.10
2014,07,14,05,10,12.10
2014,07,14,05,11,12.10
2014,07,14,05,12,12.10
2014,07,14,05,13,12.10
2014,07,14,05,14,12.10
2014,07,14,05,15,12.10
2014,07,14,05,16,12.10
2014,07,14,05,17,12.10
2014,07,14,05,18,12.10
2014,07,14,05,19,12.10
2014,07,14,05,20,12.10
2014,07,14,05,21,12.10
2014,07,14,05,22,12.00
2014,07,14,05,23,12.00
2014,07,14,05,24,12.00
2014,07,14,05,25,12.00
2014,07,14,05,26,12.00
2014,07,14,05,27,12.00
2014,07,14,05,28,12.00
2014,07,14,05,29,12.00
2014,07,14,05,30,11.90
2014,07,14,05,31,11.90
2014,07,14,05,32,11.90
2014,07,14,05,33,11.90
2014,07,14,05,34,11.80
2014,07,14,05,35,11.80
2014,07,14,05,36,11.80
2014,07,14,05,37,11.80
2014,07,14,05,38,11.80
2014,07,14,05,39,11.80
2014,07,14,05,40,11.80
2014,07,14,05,41,11.80
2014,07,14,05,42,11.80
2014,07,14,05,43,11.80
2014,07,14,05,44,11.80
2014,07,14,05,45,11.80
2014,07,14,05,46,11.70
2014,07,14,05,47,11.70
2014,07,14,05,48,11.70
2014,07,14,05,49,11.70
2014,07,14,05,50,11.70
2014,07,14,05,51,11.70
2014,07,14,05,52,11.70
2014,07,14,05,53,11.70
2014,07,14,05,54,11.70
2014,07,14,05,55,11.70
2014,07,14,05,56,11.70
2014,07,14,05,57,11.80
2014,07,14,05,58,11.80
2014,07,14,05,59,11.80
2014,07,14,06,00,11.80
2014,07,14,06,01,11.80
2014,07,14,06,02,11.80
2014,07,14,06,03,11.80
2014,07,14,06,04,11.80
2014,07,14,06,05,11.90
2014,07,14,06,06,11.90
2014,07,14,06,07,11.90
2014,07,14,06,08,12.00
2014,07,14,06,09,12.00
2014,07,14,06,10,12.00
2014,07,14,06,11,12.00
2014,07,14,06,12,12.00
2014,07,14,06,13,12.10
2014,07,14,06,14,12.10
2014,07,14,06,15,12.10
2014,07,14,06,16,12.20
2014,07,14,06,17,12.20
2014,07,14,06,18,12.20
2014,07,14,06,19,12.20
2014,07,14,06,20,12.30
2014,07,14,06,21,12.30
2014,07,14,06,22,12.30
2014,07,14,06,23,12.30
2014,07,14,06,24,12.30
2014,07,14,06,25,12.30
2014,07,14,06,26,12.30
2014,07,14,06,27,12.30
2014,07,14,06,28,12.40
2014,07,14,06,29,12.40
2014,07,14,06,30,12.40
2014,07,14,06,31,12.40
2014,07,14,06,32,12.40
2014,07,14,06,33,12.40
2014,07,14,06,34,12.50
2014,07,14,06,35,12.50
2014,07,14,06,36,12.50
2014,07,14,06,37,12.50
2014,07,14,06,38,12.50
2014,07,14,06,39,12.50
2014,07,14,06,40,12.50
2014,07,14,06,41,12.60
2014,07,14,06,42,12.60
2014,07,14,06,43,12.60
2014,07,14,06,44,12.70
2014,07,14,06,45,12.70
2014,07,14,06,46,12.70
2014,07,14,06,47,12.80
2014,07,14,06,48,12.80
2014,07,14,06,49,12.80
2014,07,14,06,50,12.80
2014,07,14,06,51,12.90
2014,07,14,06,52,12.90
2014,07,14,06,53,12.90
2014,07,14,06,54,13.00
2014,07,14,06,55,13.00
2014,07,14,06,56,13.00
2014,07,14,06,57,13.00
2014,07,14,06,58,13.10
2014,07,14,06,59,13.10
2014,07,14,07,00,13.20
2014,07,14,07,01,13.20
2014,07,14,07,02,13.20
2014,07,14,07,03,13.20
2014,07,14,07,04,13.30
2014,07,14,07,05,13.30
2014,07,14,07,06,13.30
2014,07,14,07,07,13.40
2014,07,14,07,08,13.50
2014,07,14,07,09,13.60
2014,07,14,07,10,13.60
2014,07,14,07,11,13.70
2014,07,14,07,12,13.80
2014,07,14,07,13,13.90
2014,07,14,07,14,14.00
2014,07,14,07,15,14.00
2014,07,14,07,16,14.10
2014,07,14,07,17,14.20
2014,07,14,07,18,14.20
2014,07,14,07,19,14.30
2014,07,14,07,20,14.40
2014,07,14,07,21,14.50
2014,07,14,07,22,14.60
2014,07,14,07,23,14.60
2014,07,14,07,24,14.70
2014,07,14,07,25,14.80
2014,07,14,07,26,14.80
2014,07,14,07,27,14.90
2014,07,14,07,28,14.90
2014,07,14,07,29,15.00
2014,07,14,07,30,15.00
2014,07,14,07,31,15.10
2014,07,14,07,32,15.10
2014,07,14,07,33,15.20
2014,07,14,07,34,15.20
2014,07,14,07,35,15.30
2014,07,14,07,36,15.30
2014,07,14,07,37,15.30
2014,07,14,07,38,15.40
2014,07,14,07,39,15.40
2014,07,14,07,40,15.50
2014,07,14,07,41,15.50
2014,07,14,07,42,15.60
2014,07,14,07,43,15.60
2014,07,14,07,44,15.60
2014,07,14,07,45,15.60
2014,07,14,07,46,15.70
2014,07,14,07,47,15.80
2014,07,14,07,48,15.80
2014,07,14,07,49,15.80
2014,07,14,07,50,15.80
2014,07,14,07,51,15.90
2014,07,14,07,52,15.90
2014,07,14,07,53,15.90
2014,07,14,07,54,16.00
2014,07,14,07,55,16.10
2014,07,14,07,56,16.10
2014,07,14,07,57,16.10
2014,07,14,07,58,16.10
2014,07,14,07,59,16.10
2014,07,14,08,00,16.10
2014,07,14,08,01,16.10
2014,07,14,08,02,16.10
2014,07,14,08,03,16.10
2014,07,14,08,04,16.10
2014,07,14,08,05,16.10
2014,07,14,08,06,16.10
2014,07,14,08,07,16.10
2014,07,14,08,08,16.10
2014,07,14,08,09,16.10
2014,07,14,08,10,16.10
2014,07,14,08,11,16.20
2014,07,14,08,12,16.20
2014,07,14,08,13,16.30
2014,07,14,08,14,16.30
2014,07,14,08,15,16.30
2014,07,14,08,16,16.30
2014,07,14,08,17,16.30
2014,07,14,08,18,16.40
2014,07,14,08,19,16.40
2014,07,14,08,20,16.40
2014,07,14,08,21,16.40
2014,07,14,08,22,16.30
2014,07,14,08,23,16.20
2014,07,14,08,24,16.10
2014,07,14,08,25,15.80
2014,07,14,08,26,15.60
2014,07,14,08,27,15.40
2014,07,14,08,28,15.30
2014,07,14,08,29,15.20
2014,07,14,08,30,15.10
2014,07,14,08,31,15.00
2014,07,14,08,32,15.00
2014,07,14,08,33,15.00
2014,07,14,08,34,15.00
2014,07,14,08,35,15.00
2014,07,14,08,36,15.10
2014,07,14,08,37,15.10
2014,07,14,08,38,15.10
2014,07,14,08,39,15.20
2014,07,14,08,40,15.30
2014,07,14,08,41,15.40
2014,07,14,08,42,15.50
2014,07,14,08,43,15.60
2014,07,14,08,44,15.70
2014,07,14,08,45,15.80
2014,07,14,08,46,15.90
2014,07,14,08,47,16.00
2014,07,14,08,48,16.20
2014,07,14,08,49,16.30
2014,07,14,08,50,16.30
2014,07,14,08,51,16.40
2014,07,14,08,52,16.50
2014,07,14,08,53,16.60
2014,07,14,08,54,16.60
2014,07,14,08,55,16.70
2014,07,14,08,56,16.70
2014,07,14,08,57,16.70
2014,07,14,08,58,16.70
2014,07,14,08,59,16.70
2014,07,14,09,00,16.70
2014,07,14,09,01,16.70
2014,07,14,09,02,16.50
2014,07,14,09,03,16.40
2014,07,14,09,04,16.40
2014,07,14,09,05,16.40
2014,07,14,09,06,16.30
2014,07,14,09,07,16.20
2014,07,14,09,08,16.10
2014,07,14,09,09,16.10
2014,07,14,09,10,16.10
2014,07,14,09,11,16.00
2014,07,14,09,12,15.90
2014,07,14,09,13,15.80
2014,07,14,09,14,15.80
2014,07,14,09,15,15.80
2014,07,14,09,16,15.80
2014,07,14,09,17,15.80
2014,07,14,09,18,15.80
2014,07,14,09,19,15.70
2014,07,14,09,20,15.70
2014,07,14,09,21,15.70
2014,07,14,09,22,15.80
2014,07,14,09,23,15.80
2014,07,14,09,24,15.90
2014,07,14,09,25,16.00
2014,07,14,09,26,16.20
2014,07,14,09,27,16.30
2014,07,14,09,28,16.40
2014,07,14,09,29,16.50
2014,07,14,09,30,16.60
2014,07,14,09,31,16.60
2014,07,14,09,32,16.70
2014,07,14,09,33,16.70
2014,07,14,09,34,16.70
2014,07,14,09,35,16.80
2014,07,14,09,36,16.80
2014,07,14,09,37,16.90
2014,07,14,09,38,17.00
2014,07,14,09,39,17.00
2014,07,14,09,40,17.10
2014,07,14,09,41,17.20
2014,07,14,09,42,17.30
2014,07,14,09,43,17.40
2014,07,14,09,44,17.50
2014,07,14,09,45,17.50
2014,07,14,09,46,17.60
2014,07,14,09,47,17.60
2014,07,14,09,48,17.50
2014,07,14,09,49,17.40
2014,07,14,09,50,17.30
2014,07,14,09,51,17.20
2014,07,14,09,52,17.10
2014,07,14,09,53,17.10
2014,07,14,09,54,17.10
2014,07,14,09,55,17.10
2014,07,14,09,56,17.10
2014,07,14,09,57,17.20
2014,07,14,09,58,17.20
2014,07,14,09,59,17.30
2014,07,14,10,00,17.40
2014,07,14,10,01,17.60
2014,07,14,10,02,17.70
2014,07,14,10,03,17.80
2014,07,14,10,04,17.90
2014,07,14,10,05,17.90
2014,07,14,10,06,17.90
2014,07,14,10,07,17.90
2014,07,14,10,08,17.90
2014,07,14,10,09,17.90
2014,07,14,10,10,17.80
2014,07,14,10,11,17.70
2014,07,14,10,12,17.60
2014,07,14,10,13,17.40
2014,07,14,10,14,17.30
2014,07,14,10,15,17.30
2014,07,14,10,16,17.40
2014,07,14,10,17,17.40
2014,07,14,10,18,17.50
2014,07,14,10,19,17.50
2014,07,14,10,20,17.50
2014,07,14,10,21,17.60
2014,07,14,10,22,17.70
2014,07,14,10,23,17.90
2014,07,14,10,24,17.90
2014,07,14,10,25,18.00
2014,07,14,10,26,18.10
2014,07,14,10,27,18.20
2014,07,14,10,28,18.20
2014,07,14,10,29,18.20
2014,07,14,10,30,18.00
2014,07,14,10,31,17.90
2014,07,14,10,32,17.90
2014,07,14,10,33,17.90
2014,07,14,10,34,17.90
2014,07,14,10,35,18.00
2014,07,14,10,36,18.10
2014,07,14,10,37,18.10
2014,07,14,10,38,18.20
2014,07,14,10,39,18.30
2014,07,14,10,40,18.40
2014,07,14,10,41,18.50
2014,07,14,10,42,18.60
2014,07,14,10,43,18.70
2014,07,14,10,44,18.70
2014,07,14,10,45,18.80
2014,07,14,10,46,18.70
2014,07,14,10,47,18.70
2014,07,14,10,48,18.70
2014,07,14,10,49,18.70
2014,07,14,10,50,18.70
2014,07,14,10,51,18.60
2014,07,14,10,52,18.60
2014,07,14,10,53,18.60
2014,07,14,10,54,18.60
2014,07,14,10,55,18.70
2014,07,14,10,56,18.80
2014,07,14,10,57,18.80
2014,07,14,10,58,18.80
2014,07,14,10,59,18.90
2014,07,14,11,00,18.90
2014,07,14,11,01,18.90
2014,07,14,11,02,18.90
2014,07,14,11,03,18.90
2014,07,14,11,04,18.90
2014,07,14,11,05,18.80
2014,07,14,11,06,18.80
2014,07,14,11,07,18.70
2014,07,14,11,08,18.70
2014,07,14,11,09,18.80
2014,07,14,11,10,18.90
2014,07,14,11,11,19.10
2014,07,14,11,12,19.30
2014,07,14,11,13,19.40
2014,07,14,11,14,19.40
2014,07,14,11,15,19.30
2014,07,14,11,16,19.30
2014,07,14,11,17,19.20
2014,07,14,11,18,19.10
2014,07,14,11,19,19.10
2014,07,14,11,20,19.10
2014,07,14,11,21,19.10
2014,07,14,11,22,19.20
2014,07,14,11,23,19.40
2014,07,14,11,24,19.60
2014,07,14,11,25,19.70
2014,07,14,11,26,19.90
2014,07,14,11,27,19.90
2014,07,14,11,28,20.00
2014,07,14,11,29,20.10
2014,07,14,11,30,20.10
2014,07,14,11,31,20.10
2014,07,14,11,32,20.10
2014,07,14,11,33,20.10
2014,07,14,11,34,20.20
2014,07,14,11,35,20.20
2014,07,14,11,36,20.30
2014,07,14,11,37,20.40
2014,07,14,11,38,20.60
2014,07,14,11,39,20.70
2014,07,14,11,40,20.80
2014,07,14,11,41,21.00
2014,07,14,11,42,21.10
2014,07,14,11,43,21.20
2014,07,14,11,44,21.30
2014,07,14,11,45,21.30
2014,07,14,11,46,21.30
2014,07,14,11,47,21.30
2014,07,14,11,48,21.30
2014,07,14,11,49,21.30
2014,07,14,11,50,21.30
2014,07,14,11,51,21.30
2014,07,14,11,52,21.30
2014,07,14,11,53,21.30
2014,07,14,11,54,21.30
2014,07,14,11,55,21.20
2014,07,14,11,56,21.10
2014,07,14,11,57,21.10
2014,07,14,11,58,21.10
2014,07,14,11,59,21.10
2014,07,14,12,00,21.10
2014,07,14,12,01,21.10
2014,07,14,12,02,21.10
2014,07,14,12,03,21.10
2014,07,14,12,04,21.10
2014,07,14,12,05,21.10
2014,07,14,12,06,21.10
2014,07,14,12,07,21.10
2014,07,14,12,08,21.10
2014,07,14,12,09,21.10
2014,07,14,12,10,21.10
2014,07,14,12,11,21.10
2014,07,14,12,12,21.10
2014,07,14,12,13,21.10
2014,07,14,12,14,21.10
2014,07,14,12,15,21.20
2014,07,14,12,16,21.20
2014,07,14,12,17,21.30
2014,07,14,12,18,21.30
2014,07,14,12,19,21.40
2014,07,14,12,20,21.50
2014,07,14,12,21,21.60
2014,07,14,12,22,21.60
2014,07,14,12,23,21.70
2014,07,14,12,24,21.80
2014,07,14,12,25,21.90
2014,07,14,12,26,21.90
2014,07,14,12,27,22.00
2014,07,14,12,28,22.10
2014,07,14,12,29,22.30
2014,07,14,12,30,22.30
2014,07,14,12,31,22.50
2014,07,14,12,32,22.50
2014,07,14,12,33,22.60
2014,07,14,12,34,22.80
2014,07,14,12,35,22.90
2014,07,14,12,36,23.20
2014,07,14,12,37,23.30
2014,07,14,12,38,23.50
2014,07,14,12,39,23.60
2014,07,14,12,40,23.60
2014,07,14,12,41,23.60
2014,07,14,12,42,23.50
2014,07,14,12,43,23.40
2014,07,14,12,44,23.30
2014,07,14,12,45,23.40
2014,07,14,12,46,23.40
2014,07,14,12,47,23.50
2014,07,14,12,48,23.60
2014,07,14,12,49,23.50
2014,07,14,12,50,23.40
2014,07,14,12,51,23.40
2014,07,14,12,52,23.30
2014,07,14,12,53,23.30
2014,07,14,12,54,23.30
2014,07,14,12,55,23.10
2014,07,14,12,56,23.10
2014,07,14,12,57,23.00
2014,07,14,12,58,23.10
2014,07,14,12,59,23.10
2014,07,14,13,00,23.20
2014,07,14,13,01,23.30
2014,07,14,13,02,23.30
2014,07,14,13,03,23.40
2014,07,14,13,04,23.50
2014,07,14,13,05,23.60
2014,07,14,13,06,23.60
2014,07,14,13,07,23.70
2014,07,14,13,08,23.70
2014,07,14,13,09,23.70
2014,07,14,13,10,23.70
2014,07,14,13,11,23.70
2014,07,14,13,12,23.70
2014,07,14,13,13,23.60
2014,07,14,13,14,23.50
2014,07,14,13,15,23.40
2014,07,14,13,16,23.40
2014,07,14,13,17,23.40
2014,07,14,13,18,23.50
2014,07,14,13,19,23.60
2014,07,14,13,20,23.60
2014,07,14,13,21,23.60
2014,07,14,13,22,23.70
2014,07,14,13,23,23.60
2014,07,14,13,24,23.50
2014,07,14,13,25,23.40
2014,07,14,13,26,23.30
2014,07,14,13,27,23.20
2014,07,14,13,28,23.20
2014,07,14,13,29,23.20
2014,07,14,13,30,23.20
2014,07,14,13,31,23.30
2014,07,14,13,32,23.30
2014,07,14,13,33,23.40
2014,07,14,13,34,23.50
2014,07,14,13,35,23.60
2014,07,14,13,36,23.70
2014,07,14,13,37,23.90
2014,07,14,13,38,24.00
2014,07,14,13,39,24.10
2014,07,14,13,40,24.10
2014,07,14,13,41,24.20
2014,07,14,13,42,24.20
2014,07,14,13,43,24.30
2014,07,14,13,44,24.30
2014,07,14,13,45,24.20
2014,07,14,13,46,24.20
2014,07,14,13,47,24.20
2014,07,14,13,48,24.20
2014,07,14,13,49,24.20
2014,07,14,13,50,24.10
2014,07,14,13,51,24.10
2014,07,14,13,52,24.10
2014,07,14,13,53,24.10
2014,07,14,13,54,24.10
2014,07,14,13,55,24.10
2014,07,14,13,56,24.10
2014,07,14,13,57,24.10
2014,07,14,13,58,24.20
2014,07,14,13,59,24.20
2014,07,14,14,00,24.10
2014,07,14,14,01,24.10
2014,07,14,14,02,24.10
2014,07,14,14,03,24.10
2014,07,14,14,04,24.10
2014,07,14,14,05,24.20
2014,07,14,14,06,24.30
2014,07,14,14,07,24.40
2014,07,14,14,08,24.50
2014,07,14,14,09,24.50
2014,07,14,14,10,24.60
2014,07,14,14,11,24.70
2014,07,14,14,12,24.70
2014,07,14,14,13,24.80
2014,07,14,14,14,24.90
2014,07,14,14,15,24.90
2014,07,14,14,16,25.00
2014,07,14,14,17,25.10
2014,07,14,14,18,25.30
2014,07,14,14,19,25.50
2014,07,14,14,20,25.70
2014,07,14,14,21,25.90
2014,07,14,14,22,26.00
2014,07,14,14,23,26.00
2014,07,14,14,24,26.00
2014,07,14,14,25,26.00
2014,07,14,14,26,25.90
2014,07,14,14,27,25.80
2014,07,14,14,28,25.70
2014,07,14,14,29,25.60
2014,07,14,14,30,25.50
2014,07,14,14,31,25.50
2014,07,14,14,32,25.40
2014,07,14,14,33,25.40
2014,07,14,14,34,25.30
2014,07,14,14,35,25.20
2014,07,14,14,36,25.10
2014,07,14,14,37,25.00
2014,07,14,14,38,25.00
2014,07,14,14,39,24.90
2014,07,14,14,40,24.80
2014,07,14,14,41,24.70
2014,07,14,14,42,24.60
2014,07,14,14,43,24.60
2014,07,14,14,44,24.40
2014,07,14,14,45,24.20
2014,07,14,14,46,24.10
2014,07,14,14,47,24.00
2014,07,14,14,48,23.80
2014,07,14,14,49,23.80
2014,07,14,14,50,23.70
2014,07,14,14,51,23.90
2014,07,14,14,52,24.10
2014,07,14,14,53,24.20
2014,07,14,14,54,24.30
2014,07,14,14,55,24.40
2014,07,14,14,56,24.50
2014,07,14,14,57,24.50
2014,07,14,14,58,24.60
2014,07,14,14,59,24.70
2014,07,14,15,00,24.70
2014,07,14,15,01,24.80
2014,07,14,15,02,24.80
2014,07,14,15,03,24.90
2014,07,14,15,04,25.10
2014,07,14,15,05,25.20
2014,07,14,15,06,24.90
2014,07,14,15,07,24.60
2014,07,14,15,08,24.50
2014,07,14,15,09,24.40
2014,07,14,15,10,24.40
2014,07,14,15,11,24.50
2014,07,14,15,12,24.50
2014,07,14,15,13,24.40
2014,07,14,15,14,24.40
2014,07,14,15,15,24.40
2014,07,14,15,16,24.40
2014,07,14,15,17,24.40
2014,07,14,15,18,24.50
2014,07,14,15,19,24.50
2014,07,14,15,20,24.50
2014,07,14,15,21,24.40
2014,07,14,15,22,24.40
2014,07,14,15,23,24.40
2014,07,14,15,24,24.30
2014,07,14,15,25,24.40
2014,07,14,15,26,24.40
2014,07,14,15,27,24.40
2014,07,14,15,28,24.40
2014,07,14,15,29,24.40
2014,07,14,15,30,24.30
2014,07,14,15,31,24.30
2014,07,14,15,32,24.30
2014,07,14,15,33,24.10
2014,07,14,15,34,24.10
2014,07,14,15,35,24.10
2014,07,14,15,36,24.10
2014,07,14,15,37,24.10
2014,07,14,15,38,24.10
2014,07,14,15,39,24.20
2014,07,14,15,40,24.30
2014,07,14,15,41,24.40
2014,07,14,15,42,24.50
2014,07,14,15,43,24.60
2014,07,14,15,44,24.70
2014,07,14,15,45,24.80
2014,07,14,15,46,24.90
2014,07,14,15,47,25.00
2014,07,14,15,48,25.00
2014,07,14,15,49,25.10
2014,07,14,15,50,25.00
2014,07,14,15,51,24.80
2014,07,14,15,52,24.70
2014,07,14,15,53,24.60
2014,07,14,15,54,24.50
2014,07,14,15,55,24.50
2014,07,14,15,56,24.50
2014,07,14,15,57,24.60
2014,07,14,15,58,24.60
2014,07,14,15,59,24.70
2014,07,14,16,00,24.80
2014,07,14,16,01,24.90
2014,07,14,16,02,25.00
2014,07,14,16,03,25.00
2014,07,14,16,04,25.10
2014,07,14,16,05,25.20
2014,07,14,16,06,25.30
2014,07,14,16,07,25.30
2014,07,14,16,08,25.40
2014,07,14,16,09,25.40
2014,07,14,16,10,25.40
2014,07,14,16,11,25.40
2014,07,14,16,12,25.20
2014,07,14,16,13,25.00
2014,07,14,16,14,24.90
2014,07,14,16,15,24.80
2014,07,14,16,16,24.50
2014,07,14,16,17,24.40
2014,07,14,16,18,24.30
2014,07,14,16,19,24.30
2014,07,14,16,20,24.20
2014,07,14,16,21,24.20
2014,07,14,16,22,24.30
2014,07,14,16,23,24.30
2014,07,14,16,24,24.40
2014,07,14,16,25,24.40
2014,07,14,16,26,24.30
2014,07,14,16,27,24.30
2014,07,14,16,28,24.20
2014,07,14,16,29,24.20
2014,07,14,16,30,24.10
2014,07,14,16,31,24.10
2014,07,14,16,32,24.00
2014,07,14,16,33,23.90
2014,07,14,16,34,23.80
2014,07,14,16,35,23.70
2014,07,14,16,36,23.50
2014,07,14,16,37,23.40
2014,07,14,16,38,23.30
2014,07,14,16,39,23.30
2014,07,14,16,40,23.30
2014,07,14,16,41,23.30
2014,07,14,16,42,23.30
2014,07,14,16,43,23.30
2014,07,14,16,44,23.30
2014,07,14,16,45,23.20
2014,07,14,16,46,23.00
2014,07,14,16,47,22.90
2014,07,14,16,48,23.00
2014,07,14,16,49,23.10
2014,07,14,16,50,23.10
2014,07,14,16,51,23.20
2014,07,14,16,52,23.20
2014,07,14,16,53,23.30
2014,07,14,16,54,23.10
2014,07,14,16,55,23.00
2014,07,14,16,56,22.70
2014,07,14,16,57,22.60
2014,07,14,16,58,22.50
2014,07,14,16,59,22.40
2014,07,14,17,00,22.30
2014,07,14,17,01,22.10
2014,07,14,17,02,22.10
2014,07,14,17,03,22.00
2014,07,14,17,04,21.90
2014,07,14,17,05,21.80
2014,07,14,17,06,21.70
2014,07,14,17,07,21.60
2014,07,14,17,08,21.60
2014,07,14,17,09,21.60
2014,07,14,17,10,21.50
2014,07,14,17,11,21.40
2014,07,14,17,12,21.30
2014,07,14,17,13,21.30
2014,07,14,17,14,21.20
2014,07,14,17,15,21.10
2014,07,14,17,16,21.10
2014,07,14,17,17,21.10
2014,07,14,17,18,21.00
2014,07,14,17,19,21.00